Time,TemperatureF,DewpointF,PressureIn,WindDirection,WindDirectionDegrees,WindSpeedMPH,WindSpeedGustMPH,Humidity,HourlyPrecipIn,Conditions,Clouds,dailyrainin,SoftwareType,DateUTC
2013-04-16 00:00:00,59.7,53.2,30.16,ESE,123,0.0,1.0,79,0.00,,,0.06,WeatherCatV1.11B39,2013-04-16 04:00:00,
2013-04-16 00:01:00,59.7,53.2,30.16,ESE,123,0.0,1.0,79,0.00,,,0.00,WeatherCatV1.11B39,2013-04-16 04:01:00,
2013-04-16 00:06:00,59.6,53.1,30.17,ESE,117,0.0,0.0,79,0.00,,,0.00,WeatherCatV1.11B39,2013-04-16 04:06:00,
2013-04-16 00:11:00,59.6,53.1,30.17,ESE,115,0.0,1.0,79,0.00,,,0.00,WeatherCatV1.11B39,2013-04-16 04:11:00,
2013-04-16 00:16:00,59.5,53.3,30.16,ESE,115,0.0,0.0,80,0.00,,,0.00,WeatherCatV1.11B39,2013-04-16 04:16:00,
2013-04-16 00:21:00,59.4,53.2,30.16,ESE,115,0.0,0.0,80,0.00,,,0.00,WeatherCatV1.11B39,2013-04-16 04:21:00,
2013-04-16 00:26:00,59.3,53.1,30.17,ESE,105,0.0,0.0,80,0.00,,,0.00,WeatherCatV1.11B39,2013-04-16 04:26:00,
2013-04-16 00:31:00,59.1,52.9,30.17,ESE,105,0.0,0.0,80,0.00,,,0.00,WeatherCatV1.11B39,2013-04-16 04:31:00,
2013-04-16 00:36:00,59.0,53.2,30.17,ESE,102,0.0,0.0,81,0.00,,,0.00,WeatherCatV1.11B39,2013-04-16 04:36:00,
2013-04-16 00:41:00,58.9,53.1,30.17,ESE,102,0.0,0.0,81,0.00,,,0.00,WeatherCatV1.11B39,2013-04-16 04:41:00,
2013-04-16 00:46:00,58.8,53.0,30.17,ENE,72,0.0,1.0,81,0.00,,,0.00,WeatherCatV1.11B39,2013-04-16 04:46:00,
2013-04-16 00:51:00,58.7,52.9,30.17,ENE,72,0.0,0.0,81,0.00,,,0.00,WeatherCatV1.11B39,2013-04-16 04:51:00,
2013-04-16 00:56:00,58.6,52.8,30.17,East,94,0.0,1.0,81,0.00,,,0.00,WeatherCatV1.11B39,2013-04-16 04:56:00,
2013-04-16 01:01:00,58.4,52.9,30.17,East,94,0.0,0.0,82,0.00,,,0.00,WeatherCatV1.11B39,2013-04-16 05:01:00,
2013-04-16 01:06:00,58.2,52.7,30.17,East,95,0.0,1.0,82,0.00,,,0.00,WeatherCatV1.11B39,2013-04-16 05:06:00,
2013-04-16 01:11:00,58.0,52.9,30.17,East,93,0.0,2.0,83,0.00,,,0.00,WeatherCatV1.11B39,2013-04-16 05:11:00,
2013-04-16 01:16:00,57.9,52.8,30.17,East,93,0.0,0.0,83,0.00,,,0.00,WeatherCatV1.11B39,2013-04-16 05:16:00,
2013-04-16 01:21:00,57.7,52.9,30.17,East,91,0.0,1.0,84,0.00,,,0.00,WeatherCatV1.11B39,2013-04-16 05:21:00,
2013-04-16 01:26:00,57.6,52.8,30.17,East,96,0.0,2.0,84,0.00,,,0.00,WeatherCatV1.11B39,2013-04-16 05:26:00,
2013-04-16 01:31:00,57.5,52.7,30.17,ESE,116,0.0,1.0,84,0.00,,,0.00,WeatherCatV1.11B39,2013-04-16 05:31:00,
2013-04-16 01:36:00,57.2,52.7,30.17,East,86,0.0,1.0,85,0.00,,,0.00,WeatherCatV1.11B39,2013-04-16 05:36:00,
2013-04-16 01:41:00,57.0,52.9,30.17,East,86,0.0,0.0,86,0.00,,,0.00,WeatherCatV1.11B39,2013-04-16 05:41:00,
2013-04-16 01:46:00,56.9,52.8,30.17,East,86,0.0,0.0,86,0.00,,,0.00,WeatherCatV1.11B39,2013-04-16 05:46:00,
2013-04-16 01:51:00,56.7,52.6,30.17,East,86,0.0,0.0,86,0.00,,,0.00,WeatherCatV1.11B39,2013-04-16 05:51:00,
2013-04-16 01:56:00,56.4,52.3,30.17,East,86,0.0,0.0,86,0.00,,,0.00,WeatherCatV1.11B39,2013-04-16 05:56:00,
2013-04-16 02:01:00,56.3,52.5,30.17,East,86,0.0,0.0,87,0.00,,,0.00,WeatherCatV1.11B39,2013-04-16 06:01:00,
2013-04-16 02:06:00,56.3,52.8,30.17,East,100,0.0,1.0,88,0.00,,,0.00,WeatherCatV1.11B39,2013-04-16 06:06:00,
2013-04-16 02:11:00,56.7,52.9,30.17,NE,46,0.0,1.0,87,0.00,,,0.00,WeatherCatV1.11B39,2013-04-16 06:11:00,
2013-04-16 02:16:00,56.7,52.6,30.17,ENE,60,0.0,1.0,86,0.00,,,0.00,WeatherCatV1.11B39,2013-04-16 06:16:00,
2013-04-16 02:21:00,56.4,52.3,30.17,ENE,60,0.0,0.0,86,0.00,,,0.00,WeatherCatV1.11B39,2013-04-16 06:21:00,
2013-04-16 02:26:00,56.0,52.5,30.17,ENE,63,0.0,0.0,88,0.00,,,0.00,WeatherCatV1.11B39,2013-04-16 06:26:00,
2013-04-16 02:31:00,55.6,52.1,30.17,ENE,63,0.0,0.0,88,0.00,,,0.00,WeatherCatV1.11B39,2013-04-16 06:31:00,
2013-04-16 02:36:00,55.7,52.8,30.17,East,81,0.0,3.0,90,0.00,,,0.00,WeatherCatV1.11B39,2013-04-16 06:36:00,
2013-04-16 02:41:00,56.1,53.2,30.17,NNE,32,0.0,1.0,90,0.00,,,0.00,WeatherCatV1.11B39,2013-04-16 06:41:00,
2013-04-16 02:46:00,56.2,53.0,30.17,SSE,158,2.0,2.0,89,0.00,,,0.00,WeatherCatV1.11B39,2013-04-16 06:46:00,
2013-04-16 02:51:00,56.4,53.2,30.17,ENE,63,2.0,3.0,89,0.00,,,0.00,WeatherCatV1.11B39,2013-04-16 06:51:00,
2013-04-16 02:56:00,56.7,53.5,30.16,ENE,69,0.0,2.0,89,0.00,,,0.00,WeatherCatV1.11B39,2013-04-16 06:56:00,
2013-04-16 03:01:00,56.9,53.4,30.16,ENE,70,0.0,0.0,88,0.00,,,0.00,WeatherCatV1.11B39,2013-04-16 07:01:00,
2013-04-16 03:06:00,56.7,53.2,30.16,ENE,69,0.0,1.0,88,0.00,,,0.00,WeatherCatV1.11B39,2013-04-16 07:06:00,
2013-04-16 03:11:00,56.5,53.3,30.16,ENE,58,1.0,2.0,89,0.00,,,0.00,WeatherCatV1.11B39,2013-04-16 07:11:00,
2013-04-16 03:16:00,56.6,53.4,30.17,East,79,0.0,2.0,89,0.00,,,0.00,WeatherCatV1.11B39,2013-04-16 07:16:00,
2013-04-16 03:21:00,56.6,53.4,30.16,ESE,105,0.0,0.0,89,0.00,,,0.00,WeatherCatV1.11B39,2013-04-16 07:21:00,
2013-04-16 03:26:00,56.6,53.4,30.16,ESE,105,0.0,1.0,89,0.00,,,0.00,WeatherCatV1.11B39,2013-04-16 07:26:00,
2013-04-16 03:31:00,56.5,53.6,30.16,NE,54,1.0,2.0,90,0.00,,,0.00,WeatherCatV1.11B39,2013-04-16 07:31:00,
2013-04-16 03:36:00,56.6,53.7,30.16,East,100,0.0,2.0,90,0.00,,,0.00,WeatherCatV1.11B39,2013-04-16 07:36:00,
2013-04-16 03:41:00,56.7,53.8,30.16,ESE,113,0.0,0.0,90,0.00,,,0.00,WeatherCatV1.11B39,2013-04-16 07:41:00,
2013-04-16 03:46:00,56.7,53.8,30.16,East,82,0.0,0.0,90,0.00,,,0.00,WeatherCatV1.11B39,2013-04-16 07:46:00,
2013-04-16 03:51:00,56.8,53.9,30.16,ENE,75,0.0,0.0,90,0.00,,,0.00,WeatherCatV1.11B39,2013-04-16 07:51:00,
2013-04-16 03:56:00,57.0,53.8,30.16,East,79,0.0,3.0,89,0.00,,,0.00,WeatherCatV1.11B39,2013-04-16 07:56:00,
2013-04-16 04:01:00,57.1,53.9,30.16,ENE,68,1.0,3.0,89,0.00,,,0.00,WeatherCatV1.11B39,2013-04-16 08:01:00,
2013-04-16 04:06:00,57.1,53.9,30.16,ESE,104,0.0,1.0,89,0.00,,,0.00,WeatherCatV1.11B39,2013-04-16 08:06:00,
2013-04-16 04:11:00,57.1,53.9,30.16,ESE,119,0.0,2.0,89,0.00,,,0.00,WeatherCatV1.11B39,2013-04-16 08:11:00,
2013-04-16 04:16:00,57.0,53.8,30.16,East,94,0.0,5.0,89,0.00,,,0.00,WeatherCatV1.11B39,2013-04-16 08:16:00,
2013-04-16 04:21:00,57.0,53.8,30.16,ESE,114,0.0,0.0,89,0.00,,,0.00,WeatherCatV1.11B39,2013-04-16 08:21:00,
2013-04-16 04:26:00,57.0,53.8,30.16,ESE,114,0.0,0.0,89,0.00,,,0.00,WeatherCatV1.11B39,2013-04-16 08:26:00,
2013-04-16 04:31:00,56.9,53.7,30.16,NE,56,1.0,2.0,89,0.00,,,0.00,WeatherCatV1.11B39,2013-04-16 08:31:00,
2013-04-16 04:36:00,56.9,54.0,30.16,East,100,1.0,2.0,90,0.00,,,0.00,WeatherCatV1.11B39,2013-04-16 08:36:00,
2013-04-16 04:41:00,57.3,54.1,30.16,ENE,61,0.0,0.0,89,0.00,,,0.00,WeatherCatV1.11B39,2013-04-16 08:41:00,
2013-04-16 04:46:00,57.3,54.1,30.16,ENE,65,0.0,0.0,89,0.00,,,0.00,WeatherCatV1.11B39,2013-04-16 08:46:00,
2013-04-16 04:51:00,57.2,54.0,30.16,ENE,65,0.0,0.0,89,0.00,,,0.00,WeatherCatV1.11B39,2013-04-16 08:51:00,
2013-04-16 04:56:00,57.3,54.1,30.16,SSE,155,0.0,0.0,89,0.00,,,0.00,WeatherCatV1.11B39,2013-04-16 08:56:00,
2013-04-16 05:01:00,57.3,54.4,30.16,SE,131,0.0,0.0,90,0.00,,,0.00,WeatherCatV1.11B39,2013-04-16 09:01:00,
2013-04-16 05:06:00,57.2,54.3,30.16,SE,131,0.0,0.0,90,0.00,,,0.00,WeatherCatV1.11B39,2013-04-16 09:06:00,
2013-04-16 05:11:00,57.2,54.3,30.16,SE,131,0.0,0.0,90,0.00,,,0.00,WeatherCatV1.11B39,2013-04-16 09:11:00,
2013-04-16 05:16:00,57.1,53.9,30.16,East,94,0.0,0.0,89,0.00,,,0.00,WeatherCatV1.11B39,2013-04-16 09:16:00,
2013-04-16 05:21:00,57.1,54.2,30.16,East,96,0.0,0.0,90,0.00,,,0.00,WeatherCatV1.11B39,2013-04-16 09:21:00,
2013-04-16 05:26:00,57.2,54.3,30.16,East,96,0.0,0.0,90,0.00,,,0.00,WeatherCatV1.11B39,2013-04-16 09:26:00,
2013-04-16 05:31:00,57.3,54.4,30.16,SE,129,0.0,0.0,90,0.00,,,0.00,WeatherCatV1.11B39,2013-04-16 09:31:00,
2013-04-16 05:36:00,57.7,54.8,30.16,East,98,0.0,0.0,90,0.00,,,0.00,WeatherCatV1.11B39,2013-04-16 09:36:00,
2013-04-16 05:41:00,57.8,54.6,30.16,East,98,0.0,0.0,89,0.00,,,0.00,WeatherCatV1.11B39,2013-04-16 09:41:00,
2013-04-16 05:46:00,58.0,54.8,30.16,SE,131,0.0,1.0,89,0.00,,,0.00,WeatherCatV1.11B39,2013-04-16 09:46:00,
2013-04-16 05:51:00,58.2,54.7,30.16,South,187,2.0,2.0,88,0.00,,,0.00,WeatherCatV1.11B39,2013-04-16 09:51:00,
2013-04-16 05:56:00,58.5,55.0,30.16,ESE,123,0.0,2.0,88,0.00,,,0.00,WeatherCatV1.11B39,2013-04-16 09:56:00,
2013-04-16 06:01:00,58.5,55.0,30.16,SSE,158,0.0,2.0,88,0.00,,,0.00,WeatherCatV1.11B39,2013-04-16 10:01:00,
2013-04-16 06:06:00,58.5,55.0,30.17,ESE,115,0.0,1.0,88,0.00,,,0.00,WeatherCatV1.11B39,2013-04-16 10:06:00,
2013-04-16 06:11:00,58.6,55.1,30.17,ESE,105,0.0,3.0,88,0.00,,,0.00,WeatherCatV1.11B39,2013-04-16 10:11:00,
2013-04-16 06:16:00,58.7,54.8,30.17,ESE,114,0.0,0.0,87,0.00,,,0.00,WeatherCatV1.11B39,2013-04-16 10:16:00,
2013-04-16 06:21:00,58.7,54.8,30.17,ESE,122,0.0,0.0,87,0.00,,,0.00,WeatherCatV1.11B39,2013-04-16 10:21:00,
2013-04-16 06:26:00,58.7,54.8,30.17,East,91,2.0,2.0,87,0.00,,,0.00,WeatherCatV1.11B39,2013-04-16 10:26:00,
2013-04-16 06:31:00,58.8,54.9,30.17,ESE,103,0.0,0.0,87,0.00,,,0.00,WeatherCatV1.11B39,2013-04-16 10:31:00,
2013-04-16 06:36:00,58.7,54.8,30.18,ESE,103,0.0,1.0,87,0.00,,,0.00,WeatherCatV1.11B39,2013-04-16 10:36:00,
2013-04-16 06:40:00,58.7,54.8,30.18,ESE,120,1.0,3.0,87,0.00,,,0.00,WeatherCatV1.11B39,2013-04-16 10:40:00,
2013-04-16 06:45:00,58.8,54.9,30.18,East,91,0.0,3.0,87,0.00,,,0.00,WeatherCatV1.11B39,2013-04-16 10:45:00,
2013-04-16 06:50:00,58.8,54.9,30.18,ESE,119,0.0,1.0,87,0.00,,,0.00,WeatherCatV1.11B39,2013-04-16 10:50:00,
2013-04-16 06:55:00,58.8,54.9,30.18,ESE,108,0.0,0.0,87,0.00,,,0.00,WeatherCatV1.11B39,2013-04-16 10:55:00,
2013-04-16 07:00:00,58.8,54.9,30.19,SE,124,0.0,1.0,87,0.00,,,0.00,WeatherCatV1.11B39,2013-04-16 11:00:00,
2013-04-16 07:05:00,58.7,54.8,30.19,ESE,107,3.0,6.0,87,0.00,,,0.00,WeatherCatV1.11B39,2013-04-16 11:05:00,
2013-04-16 07:10:00,58.7,54.8,30.19,SE,139,0.0,4.0,87,0.00,,,0.00,WeatherCatV1.11B39,2013-04-16 11:10:00,
2013-04-16 07:15:00,58.6,55.1,30.19,SSE,161,0.0,0.0,88,0.00,,,0.00,WeatherCatV1.11B39,2013-04-16 11:15:00,
2013-04-16 07:20:00,58.4,54.9,30.19,ESE,117,0.0,0.0,88,0.00,,,0.00,WeatherCatV1.11B39,2013-04-16 11:20:00,
2013-04-16 07:25:00,58.3,54.8,30.20,ESE,117,0.0,0.0,88,0.00,,,0.00,WeatherCatV1.11B39,2013-04-16 11:25:00,
2013-04-16 07:30:00,58.2,54.7,30.20,ESE,117,0.0,0.0,88,0.00,,,0.00,WeatherCatV1.11B39,2013-04-16 11:30:00,
2013-04-16 07:35:00,58.0,54.8,30.20,ESE,117,0.0,0.0,89,0.00,,,0.00,WeatherCatV1.11B39,2013-04-16 11:35:00,
2013-04-16 07:40:00,58.1,54.9,30.20,ESE,117,0.0,0.0,89,0.00,,,0.00,WeatherCatV1.11B39,2013-04-16 11:40:00,
2013-04-16 07:45:00,58.4,55.2,30.21,SE,134,0.0,0.0,89,0.00,,,0.00,WeatherCatV1.11B39,2013-04-16 11:45:00,
2013-04-16 07:50:00,58.6,55.1,30.21,South,186,1.0,3.0,88,0.00,,,0.00,WeatherCatV1.11B39,2013-04-16 11:50:00,
2013-04-16 07:55:00,58.8,55.3,30.21,SSE,161,0.0,0.0,88,0.00,,,0.00,WeatherCatV1.11B39,2013-04-16 11:55:00,
2013-04-16 08:00:00,58.8,55.3,30.21,East,93,1.0,1.0,88,0.00,,,0.00,WeatherCatV1.11B39,2013-04-16 12:00:00,
2013-04-16 08:05:00,58.9,55.3,30.21,ESE,103,1.0,1.0,88,0.00,,,0.00,WeatherCatV1.11B39,2013-04-16 12:05:00,
2013-04-16 08:10:00,58.9,55.3,30.21,SE,134,0.0,1.0,88,0.00,,,0.00,WeatherCatV1.11B39,2013-04-16 12:10:00,
2013-04-16 08:15:00,59.1,55.2,30.21,SW,219,1.0,4.0,87,0.00,,,0.00,WeatherCatV1.11B39,2013-04-16 12:15:00,
2013-04-16 08:20:00,59.5,55.6,30.21,East,96,0.0,0.0,87,0.00,,,0.00,WeatherCatV1.11B39,2013-04-16 12:20:00,
2013-04-16 08:25:00,59.8,55.6,30.22,SE,125,0.0,1.0,86,0.00,,,0.00,WeatherCatV1.11B39,2013-04-16 12:25:00,
2013-04-16 08:30:00,60.0,55.8,30.22,ESE,108,0.0,0.0,86,0.00,,,0.00,WeatherCatV1.11B39,2013-04-16 12:30:00,
2013-04-16 08:35:00,60.1,55.6,30.22,ESE,113,0.0,1.0,85,0.00,,,0.00,WeatherCatV1.11B39,2013-04-16 12:35:00,
2013-04-16 08:38:00,60.3,55.8,30.22,SE,135,1.0,3.0,85,0.00,,,0.00,WeatherCatV1.11B39,2013-04-16 12:38:00,
2013-04-16 08:41:00,60.4,55.9,30.22,ESE,104,0.0,1.0,85,0.00,,,0.00,WeatherCatV1.11B39,2013-04-16 12:41:00,
2013-04-16 08:46:00,60.5,56.0,30.22,SE,134,0.0,0.0,85,0.00,,,0.00,WeatherCatV1.11B39,2013-04-16 12:46:00,
2013-04-16 08:51:00,60.6,55.7,30.22,SE,137,3.0,3.0,84,0.00,,,0.00,WeatherCatV1.11B39,2013-04-16 12:51:00,
2013-04-16 08:56:00,60.8,55.9,30.22,ENE,77,0.0,3.0,84,0.00,,,0.00,WeatherCatV1.11B39,2013-04-16 12:56:00,
2013-04-16 09:01:00,61.0,55.8,30.22,ESE,111,0.0,3.0,83,0.00,,,0.00,WeatherCatV1.11B39,2013-04-16 13:01:00,
2013-04-16 09:06:00,61.1,55.9,30.22,SSW,203,1.0,2.0,83,0.00,,,0.00,WeatherCatV1.11B39,2013-04-16 13:06:00,
2013-04-16 09:11:00,61.3,56.4,30.22,ESE,103,0.0,1.0,84,0.00,,,0.00,WeatherCatV1.11B39,2013-04-16 13:11:00,
2013-04-16 09:16:00,61.4,56.2,30.23,NE,52,7.0,7.0,83,0.00,,,0.00,WeatherCatV1.11B39,2013-04-16 13:16:00,
2013-04-16 09:21:00,61.4,55.9,30.23,ENE,59,8.0,9.0,82,0.00,,,0.00,WeatherCatV1.11B39,2013-04-16 13:21:00,
2013-04-16 09:26:00,61.4,55.9,30.23,ENE,77,0.0,0.0,82,0.00,,,0.00,WeatherCatV1.11B39,2013-04-16 13:26:00,
2013-04-16 09:31:00,61.6,56.4,30.23,ESE,112,0.0,0.0,83,0.00,,,0.00,WeatherCatV1.11B39,2013-04-16 13:31:00,
2013-04-16 09:36:00,62.1,56.2,30.23,ESE,103,0.0,5.0,81,0.00,,,0.00,WeatherCatV1.11B39,2013-04-16 13:36:00,
2013-04-16 09:41:00,62.3,56.4,30.23,East,88,0.0,2.0,81,0.00,,,0.00,WeatherCatV1.11B39,2013-04-16 13:41:00,
2013-04-16 09:46:00,62.7,57.1,30.23,South,186,0.0,2.0,82,0.00,,,0.00,WeatherCatV1.11B39,2013-04-16 13:46:00,
2013-04-16 09:51:00,63.0,56.7,30.23,SW,222,0.0,4.0,80,0.00,,,0.00,WeatherCatV1.11B39,2013-04-16 13:51:00,
2013-04-16 09:56:00,63.3,56.7,30.23,ENE,62,0.0,1.0,79,0.00,,,0.00,WeatherCatV1.11B39,2013-04-16 13:56:00,
2013-04-16 10:01:00,63.4,56.4,30.23,East,79,0.0,6.0,78,0.00,,,0.00,WeatherCatV1.11B39,2013-04-16 14:01:00,
2013-04-16 10:06:00,63.5,56.5,30.23,East,96,0.0,2.0,78,0.00,,,0.00,WeatherCatV1.11B39,2013-04-16 14:06:00,
2013-04-16 10:11:00,63.7,56.7,30.23,East,84,1.0,3.0,78,0.00,,,0.00,WeatherCatV1.11B39,2013-04-16 14:11:00,
2013-04-16 10:16:00,63.9,56.5,30.23,ENE,68,0.0,2.0,77,0.00,,,0.00,WeatherCatV1.11B39,2013-04-16 14:16:00,
2013-04-16 10:21:00,64.0,57.0,30.23,ENE,65,0.0,0.0,78,0.00,,,0.00,WeatherCatV1.11B39,2013-04-16 14:21:00,
2013-04-16 10:26:00,64.3,56.9,30.23,SW,224,2.0,4.0,77,0.00,,,0.00,WeatherCatV1.11B39,2013-04-16 14:26:00,
2013-04-16 10:31:00,64.6,56.9,30.23,SW,224,0.0,1.0,76,0.00,,,0.00,WeatherCatV1.11B39,2013-04-16 14:31:00,
2013-04-16 10:36:00,64.9,56.4,30.23,ENE,75,0.0,4.0,74,0.00,,,0.00,WeatherCatV1.11B39,2013-04-16 14:36:00,
2013-04-16 10:41:00,65.1,56.6,30.23,East,88,0.0,1.0,74,0.00,,,0.00,WeatherCatV1.11B39,2013-04-16 14:41:00,
2013-04-16 10:46:00,65.3,56.0,30.23,ENE,60,0.0,0.0,72,0.00,,,0.00,WeatherCatV1.11B39,2013-04-16 14:46:00,
2013-04-16 10:51:00,65.8,56.9,30.23,ENE,60,0.0,0.0,73,0.00,,,0.00,WeatherCatV1.11B39,2013-04-16 14:51:00,
2013-04-16 10:56:00,66.4,56.3,30.23,ENE,65,2.0,4.0,70,0.00,,,0.00,WeatherCatV1.11B39,2013-04-16 14:56:00,
2013-04-16 11:01:00,66.8,55.9,30.23,East,87,0.0,4.0,68,0.00,,,0.00,WeatherCatV1.11B39,2013-04-16 15:01:00,
2013-04-16 11:06:00,67.1,56.2,30.23,NE,53,0.0,1.0,68,0.00,,,0.00,WeatherCatV1.11B39,2013-04-16 15:06:00,
2013-04-16 11:11:00,67.3,56.4,30.23,ENE,68,3.0,6.0,68,0.00,,,0.00,WeatherCatV1.11B39,2013-04-16 15:11:00,
2013-04-16 11:16:00,67.8,56.4,30.23,ENE,68,0.0,1.0,67,0.00,,,0.00,WeatherCatV1.11B39,2013-04-16 15:16:00,
2013-04-16 11:21:00,68.3,56.5,30.23,ESE,118,0.0,0.0,66,0.00,,,0.00,WeatherCatV1.11B39,2013-04-16 15:21:00,
2013-04-16 11:26:00,68.8,56.5,30.23,NNW,345,0.0,3.0,65,0.00,,,0.00,WeatherCatV1.11B39,2013-04-16 15:26:00,
2013-04-16 11:31:00,69.0,56.3,30.23,ENE,68,0.0,2.0,64,0.00,,,0.00,WeatherCatV1.11B39,2013-04-16 15:31:00,
2013-04-16 11:36:00,69.3,55.7,30.23,NNE,23,3.0,7.0,62,0.00,,,0.00,WeatherCatV1.11B39,2013-04-16 15:36:00,
2013-04-16 11:41:00,69.5,55.4,30.23,SE,125,1.0,2.0,61,0.00,,,0.00,WeatherCatV1.11B39,2013-04-16 15:41:00,
2013-04-16 11:46:00,69.3,56.2,30.23,NE,43,1.0,1.0,63,0.00,,,0.00,WeatherCatV1.11B39,2013-04-16 15:46:00,
2013-04-16 11:51:00,69.9,55.8,30.23,NE,47,3.0,5.0,61,0.00,,,0.00,WeatherCatV1.11B39,2013-04-16 15:51:00,
2013-04-16 11:56:00,70.2,56.1,30.23,NE,51,0.0,4.0,61,0.00,,,0.00,WeatherCatV1.11B39,2013-04-16 15:56:00,
2013-04-16 12:01:00,70.8,55.8,30.23,NE,55,2.0,5.0,59,0.00,,,0.00,WeatherCatV1.11B39,2013-04-16 16:01:00,
2013-04-16 12:06:00,71.2,56.1,30.23,SSE,150,1.0,1.0,59,0.00,,,0.00,WeatherCatV1.11B39,2013-04-16 16:06:00,
2013-04-16 12:11:00,71.4,55.8,30.22,NE,55,4.0,5.0,58,0.00,,,0.00,WeatherCatV1.11B39,2013-04-16 16:11:00,
2013-04-16 12:16:00,71.4,56.3,30.22,East,90,1.0,1.0,59,0.00,,,0.00,WeatherCatV1.11B39,2013-04-16 16:16:00,
2013-04-16 12:21:00,72.0,55.4,30.22,ENE,58,1.0,4.0,56,0.00,,,0.00,WeatherCatV1.11B39,2013-04-16 16:21:00,
2013-04-16 12:26:00,72.0,55.9,30.22,SE,136,0.0,2.0,57,0.00,,,0.00,WeatherCatV1.11B39,2013-04-16 16:26:00,
2013-04-16 12:31:00,72.6,55.5,30.22,ESE,107,0.0,0.0,55,0.00,,,0.00,WeatherCatV1.11B39,2013-04-16 16:31:00,
2013-04-16 12:36:00,73.7,56.5,30.22,ENE,76,0.0,3.0,55,0.00,,,0.00,WeatherCatV1.11B39,2013-04-16 16:36:00,
2013-04-16 12:41:00,74.8,56.0,30.21,NE,49,4.0,4.0,52,0.00,,,0.00,WeatherCatV1.11B39,2013-04-16 16:41:00,
2013-04-16 12:46:00,74.9,55.0,30.21,SE,124,0.0,2.0,50,0.00,,,0.00,WeatherCatV1.11B39,2013-04-16 16:46:00,
2013-04-16 12:51:00,74.6,55.3,30.21,ENE,68,0.0,2.0,51,0.00,,,0.00,WeatherCatV1.11B39,2013-04-16 16:51:00,
2013-04-16 12:56:00,75.5,56.6,30.21,SE,136,0.0,1.0,52,0.00,,,0.00,WeatherCatV1.11B39,2013-04-16 16:56:00,
2013-04-16 13:01:00,76.0,56.5,30.21,ENE,62,0.0,0.0,51,0.00,,,0.00,WeatherCatV1.11B39,2013-04-16 17:01:00,
2013-04-16 13:06:00,75.9,54.8,30.20,East,86,0.0,1.0,48,0.00,,,0.00,WeatherCatV1.11B39,2013-04-16 17:06:00,
2013-04-16 13:11:00,76.4,55.8,30.20,SE,132,0.0,1.0,49,0.00,,,0.00,WeatherCatV1.11B39,2013-04-16 17:11:00,
2013-04-16 13:16:00,76.8,56.2,30.20,SSE,155,3.0,3.0,49,0.00,,,0.00,WeatherCatV1.11B39,2013-04-16 17:16:00,
2013-04-16 13:21:00,77.2,56.5,30.19,SSW,196,2.0,2.0,49,0.00,,,0.00,WeatherCatV1.11B39,2013-04-16 17:21:00,
2013-04-16 13:26:00,77.0,56.4,30.19,SSW,194,0.0,1.0,49,0.00,,,0.00,WeatherCatV1.11B39,2013-04-16 17:26:00,
2013-04-16 13:31:00,76.5,55.9,30.19,South,191,0.0,2.0,49,0.00,,,0.00,WeatherCatV1.11B39,2013-04-16 17:31:00,
2013-04-16 13:36:00,77.9,55.4,30.19,North,359,3.0,6.0,46,0.00,,,0.00,WeatherCatV1.11B39,2013-04-16 17:36:00,
2013-04-16 13:41:00,78.1,55.0,30.19,ENE,73,0.0,4.0,45,0.00,,,0.00,WeatherCatV1.11B39,2013-04-16 17:41:00,
2013-04-16 13:46:00,78.6,54.8,30.18,ENE,68,0.0,4.0,44,0.00,,,0.00,WeatherCatV1.11B39,2013-04-16 17:46:00,
2013-04-16 13:51:00,79.0,55.8,30.18,ENE,75,2.0,3.0,45,0.00,,,0.00,WeatherCatV1.11B39,2013-04-16 17:51:00,
2013-04-16 13:56:00,79.6,55.1,30.18,East,90,0.0,5.0,43,0.00,,,0.00,WeatherCatV1.11B39,2013-04-16 17:56:00,
2013-04-16 14:01:00,79.8,55.9,30.18,NE,54,0.0,0.0,44,0.00,,,0.00,WeatherCatV1.11B39,2013-04-16 18:01:00,
2013-04-16 14:06:00,80.6,54.7,30.18,NE,41,1.0,5.0,41,0.00,,,0.00,WeatherCatV1.11B39,2013-04-16 18:06:00,
2013-04-16 14:11:00,80.9,55.6,30.17,SSE,152,0.0,1.0,42,0.00,,,0.00,WeatherCatV1.11B39,2013-04-16 18:11:00,
2013-04-16 14:16:00,81.7,54.3,30.17,ESE,114,1.0,5.0,39,0.00,,,0.00,WeatherCatV1.11B39,2013-04-16 18:16:00,
2013-04-16 14:21:00,80.3,54.4,30.17,SE,130,0.0,2.0,41,0.00,,,0.00,WeatherCatV1.11B39,2013-04-16 18:21:00,
2013-04-16 14:26:00,80.7,55.4,30.17,East,84,0.0,2.0,42,0.00,,,0.00,WeatherCatV1.11B39,2013-04-16 18:26:00,
2013-04-16 14:31:00,82.2,55.4,30.17,ENE,61,1.0,4.0,40,0.00,,,0.00,WeatherCatV1.11B39,2013-04-16 18:31:00,
2013-04-16 14:36:00,82.5,54.3,30.16,ENE,63,0.0,6.0,38,0.00,,,0.00,WeatherCatV1.11B39,2013-04-16 18:36:00,
2013-04-16 14:41:00,82.4,53.5,30.16,NNW,341,2.0,5.0,37,0.00,,,0.00,WeatherCatV1.11B39,2013-04-16 18:41:00,
2013-04-16 14:46:00,81.7,55.0,30.16,NE,39,3.0,3.0,40,0.00,,,0.00,WeatherCatV1.11B39,2013-04-16 18:46:00,
2013-04-16 14:51:00,82.2,54.7,30.16,NE,53,1.0,3.0,39,0.00,,,0.00,WeatherCatV1.11B39,2013-04-16 18:51:00,
2013-04-16 14:56:00,82.2,54.0,30.16,ENE,71,1.0,2.0,38,0.00,,,0.00,WeatherCatV1.11B39,2013-04-16 18:56:00,
2013-04-16 15:01:00,81.6,52.8,30.15,NE,51,0.0,6.0,37,0.00,,,0.00,WeatherCatV1.11B39,2013-04-16 19:01:00,
2013-04-16 15:06:00,81.8,54.4,30.15,ENE,65,0.0,1.0,39,0.00,,,0.00,WeatherCatV1.11B39,2013-04-16 19:06:00,
2013-04-16 15:11:00,82.3,54.1,30.15,ENE,60,0.0,0.0,38,0.00,,,0.00,WeatherCatV1.11B39,2013-04-16 19:11:00,
2013-04-16 15:16:00,82.5,53.6,30.14,SSW,193,0.0,4.0,37,0.00,,,0.00,WeatherCatV1.11B39,2013-04-16 19:16:00,
2013-04-16 15:21:00,82.1,52.5,30.14,NE,56,6.0,10.0,36,0.00,,,0.00,WeatherCatV1.11B39,2013-04-16 19:21:00,
2013-04-16 15:26:00,82.5,53.6,30.14,ENE,75,0.0,4.0,37,0.00,,,0.00,WeatherCatV1.11B39,2013-04-16 19:26:00,
2013-04-16 15:31:00,82.8,53.8,30.13,SE,134,0.0,1.0,37,0.00,,,0.00,WeatherCatV1.11B39,2013-04-16 19:31:00,
2013-04-16 15:36:00,82.6,54.4,30.13,East,93,0.0,1.0,38,0.00,,,0.00,WeatherCatV1.11B39,2013-04-16 19:36:00,
2013-04-16 15:41:00,83.3,54.3,30.13,ESE,119,0.0,0.0,37,0.00,,,0.00,WeatherCatV1.11B39,2013-04-16 19:41:00,
2013-04-16 15:46:00,83.3,53.5,30.13,ENE,61,0.0,0.0,36,0.00,,,0.00,WeatherCatV1.11B39,2013-04-16 19:46:00,
2013-04-16 15:51:00,83.6,53.8,30.13,SSE,153,0.0,4.0,36,0.00,,,0.00,WeatherCatV1.11B39,2013-04-16 19:51:00,
2013-04-16 15:56:00,83.3,54.3,30.13,SE,127,0.0,2.0,37,0.00,,,0.00,WeatherCatV1.11B39,2013-04-16 19:56:00,
2013-04-16 16:01:00,83.5,54.5,30.13,ENE,58,3.0,3.0,37,0.00,,,0.00,WeatherCatV1.11B39,2013-04-16 20:01:00,
2013-04-16 16:06:00,83.0,55.5,30.12,NE,49,1.0,3.0,39,0.00,,,0.00,WeatherCatV1.11B39,2013-04-16 20:06:00,
2013-04-16 16:11:00,83.0,55.5,30.12,ENE,61,0.0,2.0,39,0.00,,,0.00,WeatherCatV1.11B39,2013-04-16 20:11:00,
2013-04-16 16:16:00,82.5,55.7,30.12,SE,141,2.0,4.0,40,0.00,,,0.00,WeatherCatV1.11B39,2013-04-16 20:16:00,
2013-04-16 16:21:00,81.0,55.7,30.12,SE,146,0.0,2.0,42,0.00,,,0.00,WeatherCatV1.11B39,2013-04-16 20:21:00,
2013-04-16 16:26:00,80.9,55.0,30.12,ESE,120,0.0,1.0,41,0.00,,,0.00,WeatherCatV1.11B39,2013-04-16 20:26:00,
2013-04-16 16:31:00,80.2,54.3,30.12,SSE,148,2.0,4.0,41,0.00,,,0.00,WeatherCatV1.11B39,2013-04-16 20:31:00,
2013-04-16 16:36:00,80.3,55.1,30.12,South,170,0.0,2.0,42,0.00,,,0.00,WeatherCatV1.11B39,2013-04-16 20:36:00,
2013-04-16 16:41:00,80.7,55.4,30.11,ESE,117,0.0,2.0,42,0.00,,,0.00,WeatherCatV1.11B39,2013-04-16 20:41:00,
2013-04-16 16:46:00,79.4,54.9,30.11,ESE,113,3.0,4.0,43,0.00,,,0.00,WeatherCatV1.11B39,2013-04-16 20:46:00,
2013-04-16 16:51:00,78.7,56.2,30.11,South,176,0.0,3.0,46,0.00,,,0.00,WeatherCatV1.11B39,2013-04-16 20:51:00,
2013-04-16 16:56:00,78.5,56.0,30.12,SSE,155,2.0,3.0,46,0.00,,,0.00,WeatherCatV1.11B39,2013-04-16 20:56:00,
2013-04-16 17:01:00,78.6,55.5,30.12,SE,129,1.0,1.0,45,0.00,,,0.00,WeatherCatV1.11B39,2013-04-16 21:01:00,
2013-04-16 17:06:00,78.0,54.9,30.11,ESE,120,0.0,2.0,45,0.00,,,0.00,WeatherCatV1.11B39,2013-04-16 21:06:00,
2013-04-16 17:11:00,77.6,55.8,30.11,SE,124,3.0,8.0,47,0.00,,,0.00,WeatherCatV1.11B39,2013-04-16 21:11:00,
2013-04-16 17:16:00,77.1,55.9,30.12,ESE,103,0.0,2.0,48,0.00,,,0.00,WeatherCatV1.11B39,2013-04-16 21:16:00,
2013-04-16 17:21:00,77.2,55.4,30.12,East,91,0.0,5.0,47,0.00,,,0.00,WeatherCatV1.11B39,2013-04-16 21:21:00,
2013-04-16 17:26:00,77.2,55.4,30.12,ENE,63,0.0,7.0,47,0.00,,,0.00,WeatherCatV1.11B39,2013-04-16 21:26:00,
2013-04-16 17:31:00,77.0,55.8,30.12,ENE,58,4.0,4.0,48,0.00,,,0.00,WeatherCatV1.11B39,2013-04-16 21:31:00,
2013-04-16 17:36:00,76.9,55.7,30.12,ESE,117,0.0,0.0,48,0.00,,,0.00,WeatherCatV1.11B39,2013-04-16 21:36:00,
2013-04-16 17:41:00,77.0,56.9,30.11,SSE,149,0.0,0.0,50,0.00,,,0.00,WeatherCatV1.11B39,2013-04-16 21:41:00,
2013-04-16 17:46:00,77.0,55.2,30.11,East,91,0.0,3.0,47,0.00,,,0.00,WeatherCatV1.11B39,2013-04-16 21:46:00,
2013-04-16 17:51:00,76.8,55.6,30.12,ENE,69,2.0,6.0,48,0.00,,,0.00,WeatherCatV1.11B39,2013-04-16 21:51:00,
2013-04-16 17:56:00,76.2,56.2,30.12,South,169,0.0,4.0,50,0.00,,,0.00,WeatherCatV1.11B39,2013-04-16 21:56:00,
2013-04-16 18:01:00,76.0,56.0,30.12,South,183,2.0,2.0,50,0.00,,,0.00,WeatherCatV1.11B39,2013-04-16 22:01:00,
2013-04-16 18:06:00,75.9,55.3,30.12,SSE,148,2.0,5.0,49,0.00,,,0.00,WeatherCatV1.11B39,2013-04-16 22:06:00,
2013-04-16 18:11:00,75.9,55.9,30.12,North,349,2.0,2.0,50,0.00,,,0.00,WeatherCatV1.11B39,2013-04-16 22:11:00,
2013-04-16 18:16:00,75.6,55.6,30.12,South,171,3.0,6.0,50,0.00,,,0.00,WeatherCatV1.11B39,2013-04-16 22:16:00,
2013-04-16 18:21:00,75.4,55.4,30.12,SE,127,1.0,3.0,50,0.00,,,0.00,WeatherCatV1.11B39,2013-04-16 22:21:00,
2013-04-16 18:26:00,75.3,55.4,30.12,SW,220,1.0,4.0,50,0.00,,,0.00,WeatherCatV1.11B39,2013-04-16 22:26:00,
2013-04-16 18:31:00,75.1,55.7,30.12,ESE,110,0.0,1.0,51,0.00,,,0.00,WeatherCatV1.11B39,2013-04-16 22:31:00,
2013-04-16 18:36:00,75.0,55.6,30.12,ESE,116,0.0,4.0,51,0.00,,,0.00,WeatherCatV1.11B39,2013-04-16 22:36:00,
2013-04-16 18:41:00,74.8,55.4,30.13,SE,129,2.0,2.0,51,0.00,,,0.00,WeatherCatV1.11B39,2013-04-16 22:41:00,
2013-04-16 18:46:00,74.6,55.8,30.12,South,169,1.0,2.0,52,0.00,,,0.00,WeatherCatV1.11B39,2013-04-16 22:46:00,
2013-04-16 18:51:00,74.3,55.5,30.12,SSW,201,2.0,3.0,52,0.00,,,0.00,WeatherCatV1.11B39,2013-04-16 22:51:00,
2013-04-16 18:56:00,73.9,55.7,30.13,SSE,165,1.0,3.0,53,0.00,,,0.00,WeatherCatV1.11B39,2013-04-16 22:56:00,
2013-04-16 19:01:00,73.7,56.0,30.12,SSE,148,0.0,0.0,54,0.00,,,0.00,WeatherCatV1.11B39,2013-04-16 23:01:00,
2013-04-16 19:06:00,73.5,55.8,30.12,SE,133,0.0,2.0,54,0.00,,,0.00,WeatherCatV1.11B39,2013-04-16 23:06:00,
2013-04-16 19:11:00,73.2,55.5,30.13,West,269,1.0,3.0,54,0.00,,,0.00,WeatherCatV1.11B39,2013-04-16 23:11:00,
2013-04-16 19:16:00,72.9,55.8,30.13,ESE,117,0.0,2.0,55,0.00,,,0.00,WeatherCatV1.11B39,2013-04-16 23:16:00,
2013-04-16 19:21:00,72.6,55.5,30.13,SE,127,3.0,5.0,55,0.00,,,0.00,WeatherCatV1.11B39,2013-04-16 23:21:00,
2013-04-16 19:26:00,72.4,55.8,30.13,SE,129,0.0,0.0,56,0.00,,,0.00,WeatherCatV1.11B39,2013-04-16 23:26:00,
2013-04-16 19:31:00,72.0,55.4,30.13,ESE,122,0.0,5.0,56,0.00,,,0.00,WeatherCatV1.11B39,2013-04-16 23:31:00,
2013-04-16 19:36:00,71.9,55.8,30.13,ESE,120,0.0,4.0,57,0.00,,,0.00,WeatherCatV1.11B39,2013-04-16 23:36:00,
2013-04-16 19:41:00,71.6,56.0,30.13,South,184,3.0,7.0,58,0.00,,,0.00,WeatherCatV1.11B39,2013-04-16 23:41:00,
2013-04-16 19:46:00,71.2,55.7,30.13,SE,131,1.0,1.0,58,0.00,,,0.00,WeatherCatV1.11B39,2013-04-16 23:46:00,
2013-04-16 19:51:00,71.0,55.5,30.13,SE,136,1.0,1.0,58,0.00,,,0.00,WeatherCatV1.11B39,2013-04-16 23:51:00,
2013-04-16 19:56:00,70.8,55.3,30.13,SW,229,0.0,0.0,58,0.00,,,0.00,WeatherCatV1.11B39,2013-04-16 23:56:00,
2013-04-16 20:01:00,70.7,55.7,30.14,SE,124,0.0,3.0,59,0.00,,,0.00,WeatherCatV1.11B39,2013-04-17 00:01:00,
2013-04-16 20:06:00,70.4,55.8,30.14,SE,124,1.0,1.0,60,0.00,,,0.00,WeatherCatV1.11B39,2013-04-17 00:06:00,
2013-04-16 20:11:00,70.1,55.6,30.14,South,186,0.0,2.0,60,0.00,,,0.00,WeatherCatV1.11B39,2013-04-17 00:11:00,
2013-04-16 20:16:00,70.0,55.5,30.14,South,174,0.0,2.0,60,0.00,,,0.00,WeatherCatV1.11B39,2013-04-17 00:16:00,
2013-04-16 20:21:00,69.9,55.8,30.14,NE,52,2.0,2.0,61,0.00,,,0.00,WeatherCatV1.11B39,2013-04-17 00:21:00,
2013-04-16 20:26:00,69.9,55.8,30.15,SSE,149,1.0,2.0,61,0.00,,,0.00,WeatherCatV1.11B39,2013-04-17 00:26:00,
2013-04-16 20:31:00,69.7,55.6,30.15,ESE,122,0.0,1.0,61,0.00,,,0.00,WeatherCatV1.11B39,2013-04-17 00:31:00,
2013-04-16 20:36:00,69.6,55.5,30.15,ESE,122,0.0,0.0,61,0.00,,,0.00,WeatherCatV1.11B39,2013-04-17 00:36:00,
2013-04-16 20:41:00,69.4,55.8,30.15,ESE,110,0.0,0.0,62,0.00,,,0.00,WeatherCatV1.11B39,2013-04-17 00:41:00,
2013-04-16 20:46:00,69.2,55.6,30.15,ESE,120,0.0,0.0,62,0.00,,,0.00,WeatherCatV1.11B39,2013-04-17 00:46:00,
2013-04-16 20:51:00,69.2,55.6,30.15,SE,136,1.0,2.0,62,0.00,,,0.00,WeatherCatV1.11B39,2013-04-17 00:51:00,
2013-04-16 20:56:00,69.2,55.6,30.15,SE,124,0.0,3.0,62,0.00,,,0.00,WeatherCatV1.11B39,2013-04-17 00:56:00,
2013-04-16 21:01:00,69.1,55.5,30.15,SSE,149,2.0,2.0,62,0.00,,,0.00,WeatherCatV1.11B39,2013-04-17 01:01:00,
2013-04-16 21:06:00,69.0,55.4,30.15,SE,131,0.0,2.0,62,0.00,,,0.00,WeatherCatV1.11B39,2013-04-17 01:06:00,
2013-04-16 21:11:00,68.7,55.6,30.16,SSE,158,2.0,2.0,63,0.00,,,0.00,WeatherCatV1.11B39,2013-04-17 01:11:00,
2013-04-16 21:16:00,68.6,55.5,30.15,ESE,119,0.0,0.0,63,0.00,,,0.00,WeatherCatV1.11B39,2013-04-17 01:16:00,
2013-04-16 21:21:00,68.5,55.4,30.15,SW,216,1.0,4.0,63,0.00,,,0.00,WeatherCatV1.11B39,2013-04-17 01:21:00,
2013-04-16 21:26:00,68.4,55.3,30.16,ESE,110,2.0,2.0,63,0.00,,,0.00,WeatherCatV1.11B39,2013-04-17 01:26:00,
2013-04-16 21:31:00,68.4,55.3,30.16,SSE,154,2.0,3.0,63,0.00,,,0.00,WeatherCatV1.11B39,2013-04-17 01:31:00,
2013-04-16 21:36:00,68.4,55.3,30.16,South,175,1.0,3.0,63,0.00,,,0.00,WeatherCatV1.11B39,2013-04-17 01:36:00,
2013-04-16 21:41:00,68.4,55.7,30.16,SW,219,3.0,4.0,64,0.00,,,0.00,WeatherCatV1.11B39,2013-04-17 01:41:00,
2013-04-16 21:46:00,68.2,55.5,30.17,ESE,117,0.0,2.0,64,0.00,,,0.00,WeatherCatV1.11B39,2013-04-17 01:46:00,
2013-04-16 21:51:00,68.1,55.5,30.17,South,173,0.0,1.0,64,0.00,,,0.00,WeatherCatV1.11B39,2013-04-17 01:51:00,
2013-04-16 21:56:00,68.0,55.8,30.17,ESE,110,0.0,1.0,65,0.00,,,0.00,WeatherCatV1.11B39,2013-04-17 01:56:00,
2013-04-16 22:01:00,67.9,55.7,30.17,South,174,1.0,2.0,65,0.00,,,0.00,WeatherCatV1.11B39,2013-04-17 02:01:00,
2013-04-16 22:06:00,68.0,55.8,30.17,SSE,152,0.0,1.0,65,0.00,,,0.00,WeatherCatV1.11B39,2013-04-17 02:06:00,
2013-04-16 22:11:00,68.0,55.4,30.17,South,174,2.0,2.0,64,0.00,,,0.00,WeatherCatV1.11B39,2013-04-17 02:11:00,
2013-04-16 22:16:00,68.2,55.5,30.18,SSE,166,3.0,3.0,64,0.00,,,0.00,WeatherCatV1.11B39,2013-04-17 02:16:00,
2013-04-16 22:21:00,68.2,55.5,30.18,SE,144,0.0,1.0,64,0.00,,,0.00,WeatherCatV1.11B39,2013-04-17 02:21:00,
2013-04-16 22:26:00,68.1,55.9,30.17,SW,224,3.0,4.0,65,0.00,,,0.00,WeatherCatV1.11B39,2013-04-17 02:26:00,
2013-04-16 22:31:00,68.1,55.9,30.17,SSE,166,1.0,2.0,65,0.00,,,0.00,WeatherCatV1.11B39,2013-04-17 02:31:00,
2013-04-16 22:36:00,68.1,55.9,30.17,SSW,193,0.0,2.0,65,0.00,,,0.00,WeatherCatV1.11B39,2013-04-17 02:36:00,
2013-04-16 22:41:00,67.9,56.1,30.17,SSE,153,0.0,0.0,66,0.00,,,0.00,WeatherCatV1.11B39,2013-04-17 02:41:00,
2013-04-16 22:46:00,67.8,56.0,30.17,SE,141,0.0,2.0,66,0.00,,,0.00,WeatherCatV1.11B39,2013-04-17 02:46:00,
2013-04-16 22:51:00,67.7,55.9,30.17,SW,217,0.0,4.0,66,0.00,,,0.00,WeatherCatV1.11B39,2013-04-17 02:51:00,
2013-04-16 22:56:00,67.8,56.0,30.17,SE,138,0.0,1.0,66,0.00,,,0.00,WeatherCatV1.11B39,2013-04-17 02:56:00,
2013-04-16 23:01:00,67.8,56.0,30.17,SW,230,2.0,5.0,66,0.00,,,0.00,WeatherCatV1.11B39,2013-04-17 03:01:00,
2013-04-16 23:06:00,67.9,56.1,30.17,SW,230,0.0,1.0,66,0.00,,,0.00,WeatherCatV1.11B39,2013-04-17 03:06:00,
2013-04-16 23:11:00,67.8,56.0,30.17,SSE,154,1.0,2.0,66,0.00,,,0.00,WeatherCatV1.11B39,2013-04-17 03:11:00,
2013-04-16 23:16:00,67.8,56.0,30.17,SSE,158,2.0,2.0,66,0.00,,,0.00,WeatherCatV1.11B39,2013-04-17 03:16:00,
2013-04-16 23:21:00,67.7,55.9,30.16,South,175,1.0,2.0,66,0.00,,,0.00,WeatherCatV1.11B39,2013-04-17 03:21:00,
2013-04-16 23:26:00,67.5,55.7,30.17,SE,130,1.0,2.0,66,0.00,,,0.00,WeatherCatV1.11B39,2013-04-17 03:26:00,
2013-04-16 23:31:00,67.4,55.6,30.17,WSW,249,0.0,3.0,66,0.00,,,0.00,WeatherCatV1.11B39,2013-04-17 03:31:00,
2013-04-16 23:36:00,67.5,56.1,30.16,SE,139,0.0,1.0,67,0.00,,,0.00,WeatherCatV1.11B39,2013-04-17 03:36:00,
2013-04-16 23:41:00,67.4,55.6,30.16,SE,131,0.0,1.0,66,0.00,,,0.00,WeatherCatV1.11B39,2013-04-17 03:41:00,
2013-04-16 23:46:00,67.3,56.0,30.17,South,181,0.0,0.0,67,0.00,,,0.00,WeatherCatV1.11B39,2013-04-17 03:46:00,
2013-04-16 23:51:00,67.4,55.6,30.16,SSE,166,0.0,2.0,66,0.00,,,0.00,WeatherCatV1.11B39,2013-04-17 03:51:00,
2013-04-16 23:56:00,67.4,56.1,30.17,SE,126,1.0,1.0,67,0.00,,,0.00,WeatherCatV1.11B39,2013-04-17 03:56:00,